Regional Weather Roundup
Issued by NWS Sterling, VA

Home | Current Version | Previous Version | Graphics & Text | Print | Product List | Glossary On
Versions: 1 2 3 4 5 6 7 8 9 10 11 12 13 14 15 16 17 18 19 20 21 22 23 24 25 26 27
000
ASUS41 KLWX 170311
RWRLWX

REGIONAL WEATHER ROUNDUP
NATIONAL WEATHER SERVICE BALTIMORE MD/WASHINGTON DC
1100 PM EDT MON OCT 16 2017

Note: "FAIR" indicates few or no clouds below 12,000 feet
with no significant weather and/or obstructions to visibility.
 TC=TEMPERATURE CELSIUS

 * =Non NWS site. Station does not report precipitation (e.g. rain,
    snow, etc.), thunder, or fog.

DCZ001-MDZ009-015-VAZ040>042-051-053>054-170400-
WASHINGTON METRO

CITY           SKY/WX    TMP DP  RH WIND       PRES   REMARKS
WASHINGTON NAT CLEAR     55  38  52 NW12      30.25R
DULLES         CLEAR     53  36  52 NW10      30.25R
ANDREWS AFB    CLEAR     53  35  51 NW7       30.23R
FT BELVOIR     CLEAR     53  37  56 N3        30.25R
QUANTICO       CLEAR     53  38  56 N9        30.27R
COLLEGE PARK*  CLEAR     51  37  58 N3        30.24R
LEESBURG*      CLEAR     50  39  66 NW7       30.27R
MANASSAS*      CLEAR     44  39  82 NW7       30.26R
GAITHERSBURG*  CLEAR     46  38  73 CALM      30.26R

$$

MDZ006>007-011-014-170400-
BALTIMORE METRO

CITY           SKY/WX    TMP DP  RH WIND       PRES   REMARKS
BWI AIRPORT    CLEAR     50  38  63 NW3       30.23R
MD SCIENCE CTR   N/A     56  35  45 MISG      30.24R
MARTIN STATE   CLEAR     50  41  71 NW7       30.24R
ANNAPOLIS      CLEAR     58  44  60 NW12      30.23R
FORT MEADE*    CLEAR     43  41  93 CALM      30.26R

$$

MDZ012-015-019>023-170400-
MARYLAND EASTERN SHORE

CITY           SKY/WX    TMP DP  RH WIND       PRES   REMARKS
OCEAN CITY     CLEAR     48  45  89 NW6       30.20R
SALISBURY      PTCLDY    49  44  83 NW5       30.20R
CAMBRIDGE*     CLEAR     45  45 100 CALM      30.22R
EASTON*        CLEAR     47  44  88 CALM      30.25R

$$

MDZ017>025-170400-
SOUTHERN MARYLAND

CITY           SKY/WX    TMP DP  RH WIND       PRES   REMARKS
PATUXENT RIVER CLEAR     57  39  51 N13       30.22R
ST INIGOES     CLEAR     57  39  51 VRB5      30.21R
LEONARDTOWN*   NOT AVBL

$$

MDZ003>005-170400-
NORTH CENTRAL MARYLAND

CITY           SKY/WX    TMP DP  RH WIND       PRES   REMARKS
FREDERICK*     CLEAR     50  36  57 CALM      30.28R
HAGERSTOWN APT CLEAR     47  37  68 NW6       30.26R
WESTMINSTER*   CLEAR     50  37  62 NW6       30.24R

$$

MDZ501>502-170400-
WESTERN MARYLAND

CITY           SKY/WX    TMP DP  RH WIND       PRES   REMARKS
OAKLAND*       CLEAR     37  32  81 N5        30.24R
CUMBERLAND*    CLEAR     48  39  71 CALM      30.33R

$$

VAZ025>031-170400-
SHENANDOAH VALLEY

CITY           SKY/WX    TMP DP  RH WIND       PRES   REMARKS
WINCHESTER*    CLEAR     43  36  75 NW7       30.28R
FRONT ROYAL*   CLEAR     50  37  62 CALM      30.27R
LURAY*         CLEAR     50  37  62 NW3       30.27R
NEW MARKET*    CLEAR     42  37  82 CALM      30.28R
STAUNTON*      CLEAR     44  37  76 CALM      30.29R
WAYNESBORO*    CLEAR     45  38  77 CALM      30.28S

$$

WVZ021-048>050-054>055-170400-
EASTERN WEST VIRGINIA PANHANDLE

CITY           SKY/WX    TMP DP  RH WIND       PRES   REMARKS
MARTINSBURG    CLEAR     50  34  54 NW3       30.27R
PETERSBURG*    CLEAR     40  39  95 CALM      30.30S

$$

VAZ036>039-050-170400-
CENTRAL FOOTHILLS

CITY           SKY/WX    TMP DP  RH WIND       PRES   REMARKS
CHARLOTTESVILL CLEAR     50  39  66 N3        30.27R
CULPEPER*      CLEAR     44  38  80 CALM      30.28R
ORANGE*        CLEAR     43  39  87 CALM      30.26R
GORDONSVILLE*  CLEAR     51  40  67 NW3       30.26R
WARRENTON*     CLEAR     46  36  67 NW6       30.26R

$$

VAZ055>057-170400-
NORTH AND CENTRAL PIEDMONT

CITY           SKY/WX    TMP DP  RH WIND       PRES   REMARKS
FREDERICKSBRG* CLEAR     48  41  77 CALM      30.25R
STAFFORD*      CLEAR     46  40  80 CALM      30.29R

$$

NCZ024-NYZ072-PAZ021-071-VAZ022-071-170400-
OTHER REGIONAL OBSERVATIONS

CITY           SKY/WX    TMP DP  RH WIND       PRES   REMARKS
NEW YORK CITY  CLEAR     49  30  48 N9G16     30.23R
PHILADELPHIA   CLEAR     51  34  52 N10       30.24R
PITTSBURGH     CLEAR     44  36  73 CALM      30.30R
ROANOKE        CLEAR     48  39  71 NW7       30.30R
RICHMOND       CLEAR     49  43  80 N6        30.24R
RALEIGH        PTCLDY    53  48  83 N3        30.23R

$$

ANZ530>537-170400-
MARINE OBSERVATIONS

STATION/POSITION TIME  TEMP    WIND        PRES
                       AIR SEA DIR/SP/G
                 (UTC) (F)     (DEG/KT/KT) (MB)
THOMAS PT LIGHT  0300   56 69  320/ 12/ 14   N/A
BALT KEY BRIDGE  0248   58     330/ 12/ 14 1023.5R
COVE POINT       0248   61      10/ 14/ 24 1023.8R
LEWISETTA        0248   60 67   20/ 14/ 21 1023.2R
SOLOMONS ISLAND  0236   57 71  340/ 10/ 12 1023.0R
PINEY POINT      0248           10/ 11/ 12   N/A

$$





USA.gov is the U.S. government's official web portal to all federal, state and local government web resources and services.